Location: The Saddle
(36.8333°N, 80.3417°W)
Time: 09:00:05
(UTC-05:00)

Vanguard 1 - Visible Passes

Search period start: 04 December 2023 00:00
Search period end: 14 December 2023 00:00
Orbit: 651 x 3828 km, 34.3° (Epoch: 01 December)

Date Brightness Start Highest point End Pass type
(mag) Time Alt. Az. Time Alt. Az. Time Alt. Az.
04 Dec14.001:43:53SSE01:43:53SSE01:02:59WNWvisible
04 Dec 12.6 18:12:13 10° WSW 18:27:03 70° SSE 18:44:09 23° E visible
04 Dec 12.6 20:34:04 10° W 20:53:44 83° S 20:56:48 74° ESE visible
04 Dec 13.4 22:58:35 10° W 23:09:27 39° W 23:09:27 39° W visible
05 Dec14.002:03:06SSE02:03:06SSE01:22:07WNWvisible
05 Dec 12.6 18:32:35 10° WSW 18:47:54 76° SSE 19:03:17 28° E visible
05 Dec 12.6 20:54:54 10° W 21:15:00 82° S 21:15:56 81° SSE visible
05 Dec 13.6 23:19:40 10° WNW 23:28:35 32° W 23:28:35 32° W visible
06 Dec 12.6 18:53:06 10° WSW 19:08:54 80° S 19:22:25 34° E visible
06 Dec 12.7 21:15:45 10° W 21:35:05 77° SW 21:35:05 77° SW visible
06 Dec 13.8 23:40:52 10° WNW 23:47:44 25° W 23:47:44 25° W visible
07 Dec 12.6 19:13:42 10° W 19:30:00 83° S 19:41:36 41° E visible
07 Dec 12.8 21:36:37 10° W 21:54:15 69° WSW 21:54:15 69° WSW visible
08 Dec 13.9 00:02:14 10° WNW 00:06:55 19° W 00:06:55 19° W visible
08 Dec 12.5 17:13:29 10° WSW 17:25:40 68° SSE 17:46:52 10° E visible
08 Dec 12.6 19:34:21 10° W 19:51:10 83° S 20:00:48 47° ESE visible
08 Dec 12.9 21:57:31 10° W 22:13:28 59° WSW 22:13:28 59° WSW visible
09 Dec 14.1 00:23:54 10° W 00:26:08 14° W 00:26:08 14° W visible
09 Dec 12.4 17:33:48 10° WSW 17:46:23 75° SSE 18:07:25 12° E visible
09 Dec 12.6 19:55:04 10° W 20:12:19 81° S 20:20:04 54° ESE visible
09 Dec 13.1 22:18:28 10° W 22:32:44 50° WSW 22:32:44 50° WSW visible
10 Dec 12.4 17:54:14 10° WSW 18:07:16 80° S 18:26:43 16° E visible
10 Dec 12.6 20:15:46 10° W 20:33:28 78° SSW 20:39:23 60° SE visible
10 Dec 13.3 22:39:32 10° WNW 22:52:04 41° WSW 22:52:04 41° WSW visible
11 Dec 12.4 18:14:44 10° W 18:28:14 82° S 18:46:06 20° E visible
11 Dec 12.7 20:36:30 10° W 20:54:32 73° SSW 20:58:47 64° SSE visible
11 Dec 13.5 23:00:45 10° W 23:11:28 34° WSW 23:11:28 34° WSW visible
12 Dec 12.4 18:35:18 10° W 18:49:15 82° S 19:05:35 24° E visible
12 Dec 12.7 20:57:16 10° W 21:15:31 66° SSW 21:18:16 63° S visible
12 Dec 13.7 23:22:15 10° W 23:30:57 27° WSW 23:30:57 27° WSW visible
13 Dec 12.5 18:55:52 10° W 19:10:17 80° S 19:25:10 28° ESE visible
13 Dec 12.9 21:18:06 10° W 21:36:23 59° SSW 21:37:52 58° SSW visible
